This is the latest recevied weather packets stored in our database for station/object KO4ZGL-13. If no packets are shown the sender has not sent any weather packets the latest 10 day(s).
| Time | Temp. | Humidity | Pressure | Rain* | Wind** | Luminosity | Snow |
|---|---|---|---|---|---|---|---|
| 1787426673 | 33.33° C | 70% | 1014 hPa | 0 mm | - | 232 W/m² | - |
| 1787426369 | 33.89° C | 69% | 1013.9 hPa | 0 mm | - | 127 W/m² | - |
| 1787426066 | 34.44° C | 72% | 1014 hPa | 0 mm | - | 432 W/m² | - |
| 1787425761 | 33.89° C | 69% | 1014.2 hPa | 0 mm | - | 677 W/m² | - |
| 1787425458 | 33.33° C | 75% | 1014.2 hPa | 0 mm | - | 690 W/m² | - |
| 1787425158 | 32.78° C | 76% | 1014.1 hPa | 0 mm | - | 503 W/m² | - |
| 1787424851 | 32.78° C | 72% | 1014.3 hPa | 0 mm | - | 171 W/m² | - |
| 1787424545 | 32.78° C | 72% | 1014.3 hPa | 0 mm | - | 121 W/m² | - |
| 1787424241 | 33.33° C | 70% | 1014.4 hPa | 0 mm | - | 128 W/m² | - |
| 1787423936 | 32.78° C | 72% | 1014.4 hPa | 0 mm | - | 386 W/m² | - |
| 1787423633 | 33.33° C | 70% | 1014.2 hPa | 0 mm | - | 416 W/m² | - |
| 1787423328 | 33.33° C | 70% | 1014.5 hPa | 0 mm | - | 378 W/m² | - |
| 1787423024 | 33.33° C | 69% | 1014.6 hPa | 0 mm | - | 248 W/m² | - |
| 1787422720 | 34.44° C | 67% | 1014.4 hPa | 0 mm | - | 212 W/m² | - |
| 1787422416 | 33.89° C | 68% | 1014.6 hPa | 0 mm | - | 709 W/m² | - |
| 1787422111 | 33.89° C | 67% | 1014.5 hPa | 0 mm | - | 211 W/m² | - |
| 1787421803 | 34.44° C | 66% | 1014.6 hPa | 0 mm | - | 653 W/m² | - |
| 1787421503 | 35° C | 66% | 1014.7 hPa | 0 mm | - | 642 W/m² | - |
| 1787421199 | 33.89° C | 67% | 1014.9 hPa | 0 mm | - | 644 W/m² | - |
| 1787420898 | 33.33° C | 67% | 1015 hPa | 0 mm | - | 648 W/m² | - |
| 1787420595 | 33.33° C | 66% | 1014.7 hPa | 0 mm | - | 652 W/m² | - |
| 1787420290 | 33.33° C | 68% | 1014.9 hPa | 0 mm | - | 626 W/m² | - |
| 1787419987 | 33.33° C | 65% | 1014.8 hPa | 0 mm | - | 634 W/m² | - |
| 1787419683 | 32.78° C | 67% | 1015 hPa | 0 mm | - | 658 W/m² | - |
| 1787419377 | 33.89° C | 65% | 1015.2 hPa | 0 mm | - | 655 W/m² | - |
* Rain latest hour (hover to see other rain measurements)
** Current wind speed in m/s (hover to see current wind gust speed)